User: anonymous   Login
Location: Unspecified
(0.0000°N, 0.0000°E)
Time: 06:16:25
(UTC+02:00)
Language:

Cosmos 1980 Rocket - Orbit

View from above orbital plane
View from above orbital plane
View from above satellite
View from above satellite

Ground track
Ground track

The orbit data is extracted from the following two-line orbital elements,

1 19650U 88102B   15142.49985581 -.00000222  00000-0 -88751-4 0  9993
2 19650 070.9983 166.1431 0016576 256.4793 103.4484 14.15720190368890
Epoch (UTC): 22 May 2015 11:59:47
Eccentricity: 0.0016576
inclination: 70.9983°
perigee height: 828 km
apogee height: 852 km
right ascension of ascending node: 166.1431°
argument of perigee: 256.4793°
revolutions per day: 14.15720190
mean anomaly at epoch: 103.4484°
orbit number at epoch: 36889

The dashed part of the orbit path shows where the satellite is in the earth's shadow,  

DLR